Powrót do katalogu

SYMPHONIE 2

AktywnyŁącznośćGEO
NORAD 8132·PAYLOAD·🇩🇪 Germany

Wystrzelony Aug 27, 1975 z Cape Canaveral Space Force Station

Loading…

TLE

ŚwieżeSource: Space-Track

Epoka: Sep 14, 2026, 05:17 UTC

1 08132U 75077A   26257.22056406  .00000000  00000-0  00000-0 0  9997
2 08132   3.8154 273.3645 0003571  10.4044 157.9540  0.99979551143346

Śledź SYMPHONIE 2 w czasie rzeczywistym z AllMySat

Download on the App Store